Location: The Saddle
(36.8333°N, 80.3417°W)
Time: 15:58:10
(UTC-05:00)

A-11 Canister half - Pass Details

Date: 12 December 2023
Orbit: 1512 x 1687 km, 47.2° (Epoch: 29 February)

Event Time Altitude Azimuth Distance (km) Brightness Sun altitude
Rises 19:38:22 0° 185° (S) 4,639 11.7 -29.8°
Reaches altitude 10° 19:42:20 10° 170° (S) 3,670 10.9 -30.6°
Enters shadow 19:45:14 17° 153° (SSE) 3,158 10.4 -31.1°
Maximum altitude 19:48:43 21° 125° (SE) 2,923 - -31.8°
Drops below altitude 10° 19:55:12 10° 81° (E) 3,748 - -33.1°
Sets 19:59:16 0° 67° (ENE) 4,765 - -33.9°
